Current Conditions
Partly Cloudy
Conditions



Pressure
1011.92 (hPa) - 29.88 (inHG)
Visibility

10.0 (km) - 6.2 (miles)
Temperature
31  °C
Temperature
23  °C
Dewpoint
62  %
 Humidity
Wind Speed
14  km/h
8  kts
9  mph
4.0  m/s
Wind Direction
N
45°
E
90°
135°
S
180°
225°
W
270°
315°
 160°

South South
East
Airport Data
WSSL
Seletar Airport
Metar :WSSL 300200Z 16008KT 130V200 9999 FEW018 BKN300 31/23 Q1012
Fri 30th July 10:00 am
Raw Metar Info
Raw METAR is the most common format in the world for the transmission of observational weather data. It is highly standardized through the International Civil Aviation Organization (ICAO), which allows it to be understood throughout most of the world.
API Info
Data Provided by
https://www.checkwx.com/weather/WSSL

Aviation Weather providing METAR, TAF, AIRMET, SIGMET and OUTLOOK Weather Reports
© Info
CSS/SVG/PHP scripts were developed by weather34.com for use in the weather34 template © 2015-2021

Guide Info provided by Metar-Wikipedia